GLOBALSTAR M095 [+] (39077 NORAD) Tracking and Keplerian Element Data

This shows tracking and keplerian element data for the satellite.

Feedback or suggestion? Click here.




ElementValue
Catalog39077
NameGLOBALSTAR M095 [+]
Epoch Orbit25067
Epoch Day195.73446723
Epoch Year2018
RAAN96.5266
Inclination51.9803
Eccentricity0.000123
Argument of Perigee26.325
Mean Anonmoly333.7679
Mean Motion12.62259674
Decay Rate-9E-07
L11 39077U 13005F 18195.73446723 -.00000090 00000-0 75613-4 0 9991
L22 39077 51.9803 96.5266 0001230 26.3250 333.7679 12.62259674250674

Live tracking and technical data element details for GLOBALSTAR M095 [+] (NORAD 39077). GLOBALSTAR M095 [+] can be tracked NOW for your location showing map with azimuth and elevation plus other details from your city location.

Track the satellite on the map from your city or location and see movement details for azimuth, elevation, latitude, longitude, range, height, and movement on the map or in text.







IsCatalogInMostPopularTable: catalog: 39077, numindb: 70
Update: records affected: 1



GetName: 39077 GLOBALSTAR M095 [+]

Hit Count: updated at: Sun, 15 Jul 2018 23:15:15 GMT